FW3224 Weather Reports


Display with metric or nautical units.
time (UTC)temp
F
wind
direction
speed
MPH
gust
MPH
rain 1hr
in
rain 24hr
in
rain mn
in
humidity
%
barometer
mb
20260903231052 64 159 4.0 9.0 0.00 0.00 0.00 56 1021.4
20260903230547 64 215 2.0 8.0 0.00 0.00 0.00 56 1021.2
20260903230052 63 142 3.0 8.0 0.00 0.00 0.00 57 1021.3
20260903225547 63 200 3.0 5.0 0.00 0.00 0.00 58 1021.2
20260903225050 63 198 1.0 5.0 0.00 0.00 0.00 60 1021.4
20260903224546 63 127 2.0 5.0 0.00 0.00 0.00 59 1021.3
20260903224046 62 179 1.0 5.0 0.00 0.00 0.00 60 1021.2
20260903223546 62 210 0.0 5.0 0.00 0.00 0.00 61 1021.3
20260903223046 62 231 2.0 5.0 0.00 0.00 0.00 60 1021.3
20260903222545 62 185 0.0 7.0 0.00 0.00 0.00 61 1021.3
20260903222045 61 290 1.0 7.0 0.00 0.00 0.00 61 1021.2
20260903221545 61 209 1.0 3.0 0.00 0.00 0.00 62 1021.1
20260903221043 61 220 1.0 6.0 0.00 0.00 0.00 62 1021.1
20260903220543 61 275 2.0 5.0 0.00 0.00 0.00 61 1021.2
20260903220043 60 269 1.0 4.0 0.00 0.00 0.00 62 1021.0
20260903215543 60 250 2.0 4.0 0.00 0.00 0.00 62 1021.1
20260903215043 60 243 0.0 5.0 0.00 0.00 0.00 63 1021.1
20260903214555 60 243 1.0 5.0 0.00 0.00 0.00 63 1021.0
20260903214042 59 240 2.0 5.0 0.00 0.00 0.00 63 1020.9
20260903213539 59 251 1.0 3.0 0.00 0.00 0.00 63 1021.1
20260903213045 59 273 0.0 4.0 0.00 0.00 0.00 65 1021.0
20260903212536 59 271 2.0 4.0 0.00 0.00 0.00 65 1020.8
20260903212035 58 264 1.0 3.0 0.00 0.00 0.00 66 1020.7
20260903211535 58 295 1.0 2.0 0.00 0.00 0.00 66 1020.8
20260903211032 58 295 1.0 4.0 0.00 0.00 0.00 66 1020.8
20260903210531 58 295 2.0 4.0 0.00 0.00 0.00 67 1020.6
20260903210029 58 292 2.0 3.0 0.00 0.00 0.00 68 1020.5
20260903205527 57 292 2.0 3.0 0.00 0.00 0.00 69 1020.5
20260903205028 57 292 2.0 3.0 0.00 0.00 0.00 69 1020.5
20260903204526 57 252 1.0 3.0 0.00 0.00 0.00 70 1020.4
20260903204025 57 250 2.0 3.0 0.00 0.00 0.00 71 1020.3
20260903203528 56 282 1.0 2.0 0.00 0.00 0.00 72 1020.3
20260903203025 56 282 0.0 3.0 0.00 0.00 0.00 72 1020.3
20260903202526 57 282 1.0 4.0 0.00 0.00 0.00 73 1020.2
20260903202023 56 281 2.0 4.0 0.00 0.00 0.00 73 1020.1
20260903201532 56 281 2.0 4.0 0.00 0.00 0.00 73 1020.0
20260903201025 56 271 0.0 2.0 0.00 0.00 0.00 72 1020.0
20260903200526 57 271 1.0 3.0 0.00 0.00 0.00 72 1020.0
20260903200021 57 271 2.0 4.0 0.00 0.00 0.00 71 1019.9
20260903195521 57 237 2.0 4.0 0.00 0.00 0.00 71 1019.9
20260903195024 57 273 2.0 4.0 0.00 0.00 0.00 71 1019.9
20260903194524 57 278 0.0 3.0 0.00 0.00 0.00 71 1020.0
20260903194018 57 277 1.0 4.0 0.00 0.00 0.00 71 1019.9
20260903193517 56 279 2.0 4.0 0.00 0.00 0.00 72 1019.8
20260903193017 56 283 2.0 4.0 0.00 0.00 0.00 72 1019.8
20260903192521 56 287 0.0 2.0 0.00 0.00 0.00 71 1019.9
20260903192018 57 287 0.0 3.0 0.00 0.00 0.00 71 1019.8
20260903191515 57 287 0.0 4.0 0.00 0.00 0.00 71 1019.8
20260903191015 56 287 2.0 4.0 0.00 0.00 0.00 71 1019.7
20260903190516 56 314 1.0 3.0 0.00 0.00 0.00 72 1019.8
20260903190014 56 314 1.0 4.0 0.00 0.00 0.00 72 1019.8
20260903185512 56 315 2.0 4.0 0.00 0.00 0.00 72 1019.8
20260903185012 56 319 2.0 3.0 0.00 0.00 0.00 72 1019.7
20260903184511 57 303 2.0 3.0 0.00 0.00 0.00 72 1019.6
20260903184010 57 305 2.0 4.0 0.00 0.00 0.00 72 1019.5
20260903183508 57 323 2.0 3.0 0.00 0.00 0.00 72 1019.5
20260903183008 57 332 0.0 3.0 0.00 0.00 0.00 72 1019.5
20260903182510 58 331 2.0 4.0 0.00 0.00 0.00 72 1019.3
20260903182005 58 284 2.0 4.0 0.00 0.00 0.00 72 1019.2
20260903181506 58 218 0.0 2.0 0.00 0.00 0.00 71 1019.2
20260903181004 58 218 0.0 2.0 0.00 0.00 0.00 71 1019.2
20260903180506 58 207 0.0 2.0 0.00 0.00 0.00 70 1019.2
20260903180002 58 219 0.0 2.0 0.00 0.00 0.00 70 1019.1
20260903175505 58 219 0.0 2.0 0.00 0.00 0.00 70 1019.1
20260903175001 58 219 0.0 3.0 0.00 0.00 0.00 70 1019.0
20260903174602 58 168 0.0 3.0 0.00 0.00 0.00 70 1018.9
20260903174104 58 217 1.0 3.0 0.00 0.00 0.00 70 1018.8
20260903173559 59 217 1.0 3.0 0.00 0.00 0.00 70 1018.9
20260903173058 59 217 0.0 2.0 0.00 0.00 0.00 70 1018.9
20260903172559 59 217 0.0 2.0 0.00 0.00 0.00 69 1018.9
20260903172101 59 217 0.0 2.0 0.00 0.00 0.00 68 1018.7
20260903171555 59 217 0.0 4.0 0.00 0.00 0.00 67 1018.6
20260903171056 59 217 0.0 5.0 0.00 0.00 0.00 67 1018.7
20260903170554 59 164 0.0 3.0 0.00 0.00 0.00 67 1018.8
20260903165553 60 220 0.0 2.0 0.00 0.00 0.00 66 1018.7
20260903165052 60 254 0.0 3.0 0.00 0.00 0.00 66 1018.7
20260903164551 60 304 1.0 3.0 0.00 0.00 0.00 65 1018.8
20260903164051 60 146 1.0 4.0 0.00 0.00 0.00 65 1018.8
20260903163550 60 139 1.0 4.0 0.00 0.00 0.00 65 1018.8
20260903163049 60 87 2.0 4.0 0.00 0.00 0.00 65 1018.8
20260903162548 60 179 1.0 5.0 0.00 0.00 0.00 64 1018.7
20260903162048 61 192 1.0 6.0 0.00 0.00 0.00 64 1018.8
20260903161547 61 148 2.0 5.0 0.00 0.00 0.00 64 1018.9
20260903161046 61 135 1.0 6.0 0.00 0.00 0.00 64 1019.0
20260903160546 61 164 1.0 7.0 0.00 0.00 0.00 64 1018.9
20260903160046 61 174 2.0 4.0 0.00 0.00 0.00 64 1018.9
20260903155545 61 221 1.0 3.0 0.00 0.00 0.00 64 1018.9
20260903155045 61 144 1.0 4.0 0.00 0.00 0.00 64 1018.9
20260903154548 61 140 1.0 4.0 0.00 0.00 0.00 63 1019.0
20260903154044 61 134 1.0 5.0 0.00 0.00 0.00 64 1019.0
20260903153542 61 218 1.0 5.0 0.00 0.00 0.00 63 1018.9
20260903153051 62 220 1.0 3.0 0.00 0.00 0.00 63 1018.9
20260903152543 62 161 1.0 3.0 0.00 0.00 0.00 63 1018.9
20260903152042 62 144 0.0 3.0 0.00 0.00 0.00 62 1018.9
20260903151540 62 146 1.0 4.0 0.00 0.00 0.00 62 1018.7
20260903151037 63 193 0.0 7.0 0.00 0.00 0.00 62 1018.6
20260903150540 63 167 2.0 7.0 0.00 0.00 0.00 61 1018.6
20260903150035 63 219 2.0 8.0 0.00 0.00 0.00 61 1018.5
20260903145537 63 209 2.0 7.0 0.00 0.00 0.00 61 1018.5
20260903145037 63 213 2.0 9.0 0.00 0.00 0.00 61 1018.4
20260903144535 63 213 3.0 9.0 0.00 0.00 0.00 61 1018.3
20260903144036 63 213 1.0 9.0 0.00 0.00 0.00 61 1018.4
20260903143536 63 199 3.0 9.0 0.00 0.00 0.00 60 1018.4
20260903143042 63 219 3.0 6.0 0.00 0.00 0.00 60 1018.4
20260903142532 63 220 2.0 5.0 0.00 0.00 0.00 60 1018.2
20260903142032 63 199 1.0 5.0 0.00 0.00 0.00 60 1018.3
20260903141537 63 190 1.0 5.0 0.00 0.00 0.00 60 1018.2
20260903141028 63 240 0.0 5.0 0.00 0.00 0.00 60 1018.1
20260903140527 63 237 2.0 5.0 0.00 0.00 0.00 60 1018.1
20260903140028 63 244 3.0 6.0 0.00 0.00 0.00 60 1018.0
20260903135526 63 208 2.0 5.0 0.00 0.00 0.00 60 1017.9
20260903135026 63 190 1.0 5.0 0.00 0.00 0.00 60 1017.9
20260903134526 63 259 1.0 6.0 0.00 0.00 0.00 60 1017.8
20260903134025 63 210 2.0 6.0 0.00 0.00 0.00 60 1017.7
20260903133525 64 217 1.0 4.0 0.00 0.00 0.00 59 1017.7
20260903133026 64 198 2.0 5.0 0.00 0.00 0.00 58 1017.9
20260903132526 64 211 0.0 3.0 0.00 0.00 0.00 58 1017.9
20260903132024 65 214 0.0 3.0 0.00 0.00 0.00 58 1017.8
20260903131523 65 237 1.0 5.0 0.00 0.00 0.00 58 1017.7
20260903131025 65 198 1.0 5.0 0.00 0.00 0.00 58 1017.6
20260903130525 65 249 3.0 5.0 0.00 0.00 0.00 58 1017.5
20260903130022 65 255 2.0 4.0 0.00 0.00 0.00 59 1017.6
20260903125521 65 254 0.0 5.0 0.00 0.00 0.00 56 1017.6
20260903125024 66 254 1.0 7.0 0.00 0.00 0.00 55 1017.5
20260903124519 66 236 3.0 7.0 0.00 0.00 0.00 55 1017.3
20260903124020 66 244 3.0 7.0 0.00 0.00 0.00 54 1017.2
20260903123518 66 274 4.0 6.0 0.00 0.00 0.00 53 1017.1
20260903123018 66 244 2.0 5.0 0.00 0.00 0.00 52 1017.1
20260903122518 66 273 2.0 3.0 0.00 0.00 0.00 52 1017.1
20260903122017 67 267 1.0 4.0 0.00 0.00 0.00 51 1017.1
20260903121516 67 273 2.0 7.0 0.00 0.00 0.00 51 1016.9
20260903121015 67 254 3.0 7.0 0.00 0.00 0.00 51 1016.8
20260903120515 67 252 2.0 5.0 0.00 0.00 0.00 51 1016.8
20260903120015 67 254 3.0 5.0 0.00 0.00 0.00 51 1016.8
20260903115515 67 271 1.0 2.0 0.00 0.00 0.00 51 1016.9
20260903115015 68 293 0.0 1.0 0.00 0.00 0.00 50 1016.8
20260903114515 68 293 0.0 7.0 0.00 0.00 0.00 50 1016.9
20260903114013 68 293 2.0 8.0 0.00 0.00 0.00 49 1016.7
20260903113512 68 283 4.0 9.0 0.00 0.00 0.00 48 1016.6
20260903113012 69 263 4.0 9.0 0.00 0.00 0.00 48 1016.4
20260903112511 69 288 4.0 8.0 0.00 0.00 0.00 47 1016.3
20260903112010 69 277 5.0 8.0 0.00 0.00 0.00 47 1016.2
20260903111513 69 262 4.0 8.0 0.00 0.00 0.00 47 1016.2
20260903111009 69 261 3.0 8.0 0.00 0.00 0.00 47 1016.2
20260903110511 70 248 2.0 9.0 0.00 0.00 0.00 46 1016.1
20260903110010 70 257 3.0 9.0 0.00 0.00 0.00 46 1016.0
20260903105507 70 238 4.0 9.0 0.00 0.00 0.00 46 1015.9
20260903105006 70 269 4.0 9.0 0.00 0.00 0.00 46 1015.9
20260903104509 70 246 4.0 11.0 0.00 0.00 0.00 47 1015.7
20260903104005 70 232 5.0 10.0 0.00 0.00 0.00 46 1015.7
20260903103507 70 282 4.0 8.0 0.00 0.00 0.00 46 1015.7
20260903103004 71 266 4.0 9.0 0.00 0.00 0.00 46 1015.6
20260903102504 71 288 5.0 10.0 0.00 0.00 0.00 45 1015.5
20260903102003 71 274 5.0 12.0 0.00 0.00 0.00 45 1015.4
20260903101502 71 231 5.0 12.0 0.00 0.00 0.00 46 1015.2
20260903101101 71 280 6.0 10.0 0.00 0.00 0.00 46 1015.1
20260903100600 71 232 5.0 10.0 0.00 0.00 0.00 46 1015.1
20260903100100 71 281 4.0 12.0 0.00 0.00 0.00 46 1015.1
20260903095559 71 269 6.0 12.0 0.00 0.00 0.00 47 1015.0
20260903095105 71 229 5.0 11.0 0.00 0.00 0.00 47 1014.9
20260903094600 71 293 5.0 15.0 0.00 0.00 0.00 47 1014.9
20260903094057 71 259 6.0 15.0 0.00 0.00 0.00 47 1014.8
20260903093557 71 277 7.0 15.0 0.00 0.00 0.00 47 1014.7
20260903093103 71 292 7.0 11.0 0.00 0.00 0.00 48 1014.7
20260903092555 72 263 5.0 11.0 0.00 0.00 0.00 48 1014.6
20260903092054 72 287 6.0 11.0 0.00 0.00 0.00 48 1014.5
20260903091554 72 256 5.0 10.0 0.00 0.00 0.00 47 1014.5
20260903091053 72 266 4.0 13.0 0.00 0.00 0.00 47 1014.4
20260903090555 72 284 5.0 12.0 0.00 0.00 0.00 47 1014.2
20260903090051 72 238 6.0 12.0 0.00 0.00 0.00 46 1014.1
20260903085551 73 238 6.0 12.0 0.00 0.00 0.00 46 1014.1
20260903085050 73 263 4.0 13.0 0.00 0.00 0.00 45 1013.9
20260903084555 73 273 5.0 16.0 0.00 0.00 0.00 45 1013.8
20260903084049 73 227 8.0 16.0 0.00 0.00 0.00 45 1013.7
20260903083547 73 271 7.0 14.0 0.00 0.00 0.00 45 1013.5
20260903083055 73 285 8.0 14.0 0.00 0.00 0.00 45 1013.3
20260903082547 74 273 7.0 13.0 0.00 0.00 0.00 44 1013.2
20260903082047 74 261 7.0 12.0 0.00 0.00 0.00 44 1013.1
20260903081603 74 281 7.0 15.0 0.00 0.00 0.00 43 1012.9
20260903081046 75 260 7.0 15.0 0.00 0.00 0.00 42 1012.8
20260903080544 75 239 6.0 14.0 0.00 0.00 0.00 42 1012.8
20260903080045 75 240 5.0 14.0 0.00 0.00 0.00 42 1012.7
20260903075544 75 282 8.0 14.0 0.00 0.00 0.00 41 1012.7
20260903075044 75 290 4.0 10.0 0.00 0.00 0.00 40 1012.5
20260903074548 75 236 4.0 10.0 0.00 0.00 0.00 40 1012.4
20260903074044 76 274 3.0 10.0 0.00 0.00 0.00 38 1012.2
20260903073544 76 241 3.0 10.0 0.00 0.00 0.00 38 1012.1
20260903073044 76 242 4.0 10.0 0.00 0.00 0.00 37 1012.0
20260903072546 77 211 2.0 10.0 0.00 0.00 0.00 38 1012.0
20260903072044 78 239 2.0 6.0 0.00 0.00 0.00 38 1012.0
20260903071551 78 266 2.0 7.0 0.00 0.00 0.00 37 1012.0
20260903071043 78 250 3.0 7.0 0.00 0.00 0.00 36 1011.9
20260903070545 79 226 2.0 11.0 0.00 0.00 0.00 35 1011.7
20260903070042 79 254 4.0 11.0 0.00 0.00 0.00 35 1011.7
20260903065543 79 246 4.0 11.0 0.00 0.00 0.00 34 1011.5
20260903065042 80 275 6.0 11.0 0.00 0.00 0.00 34 1011.5
20260903064548 80 280 4.0 11.0 0.00 0.00 0.00 34 1011.4
20260903064042 80 302 4.0 11.0 0.00 0.00 0.00 34 1011.3
20260903063541 80 242 4.0 11.0 0.00 0.00 0.00 34 1011.3
20260903063048 81 241 2.0 11.0 0.00 0.00 0.00 34 1011.1
20260903062542 81 268 6.0 11.0 0.00 0.00 0.00 33 1011.1
20260903062042 81 237 4.0 12.0 0.00 0.00 0.00 34 1011.0
20260903061542 82 258 5.0 12.0 0.00 0.00 0.00 33 1011.1
20260903061041 82 231 3.0 10.0 0.00 0.00 0.00 32 1011.1
20260903060541 82 240 3.0 10.0 0.00 0.00 0.00 32 1011.0
20260903060043 82 244 4.0 11.0 0.00 0.00 0.00 33 1011.0
20260903055544 82 229 3.0 11.0 0.00 0.00 0.00 32 1010.9
20260903055040 82 244 2.0 9.0 0.00 0.00 0.00 31 1010.9
20260903054540 82 251 1.0 9.0 0.00 0.00 0.00 31 1010.8
20260903054040 82 231 3.0 9.0 0.00 0.00 0.00 31 1010.7
20260903053539 82 215 4.0 10.0 0.00 0.00 0.00 30 1010.8
20260903053040 82 255 4.0 10.0 0.00 0.00 0.00 30 1010.7
20260903052540 82 200 4.0 9.0 0.00 0.00 0.00 29 1010.6
20260903052040 82 229 4.0 11.0 0.00 0.00 0.00 30 1010.6
20260903051540 82 220 4.0 15.0 0.00 0.00 0.00 30 1010.5
20260903051043 82 277 6.0 15.0 0.00 0.00 0.00 31 1010.5
20260903050539 82 246 7.0 12.0 0.00 0.00 0.00 30 1010.4
20260903050045 82 238 7.0 16.0 0.00 0.00 0.00 30 1010.3
20260903045539 82 217 5.0 16.0 0.00 0.00 0.00 29 1010.3
20260903045041 83 200 4.0 10.0 0.00 0.00 0.00 28 1010.2
20260903044545 83 227 3.0 10.0 0.00 0.00 0.00 29 1010.1
20260903044038 83 168 5.0 14.0 0.00 0.00 0.00 28 1010.1
20260903043539 83 226 4.0 14.0 0.00 0.00 0.00 28 1010.1
20260903043037 83 208 5.0 12.0 0.00 0.00 0.00 28 1010.1
20260903042537 83 234 4.0 11.0 0.00 0.00 0.00 28 1010.1
20260903042037 83 206 4.0 14.0 0.00 0.00 0.00 28 1010.0
20260903041544 83 223 6.0 16.0 0.00 0.00 0.00 28 1009.8
20260903041037 83 167 6.0 15.0 0.00 0.00 0.00 28 1009.7
20260903040535 83 236 4.0 9.0 0.00 0.00 0.00 30 1009.7
20260903040035 83 244 3.0 9.0 0.00 0.00 0.00 30 1009.6
20260903035534 83 191 4.0 10.0 0.00 0.00 0.00 29 1009.6
20260903035034 83 205 4.0 11.0 0.00 0.00 0.00 31 1009.5
20260903034537 83 196 5.0 13.0 0.00 0.00 0.00 31 1009.4
20260903034035 82 244 6.0 22.0 0.00 0.00 0.00 32 1009.4
20260903033533 82 240 9.0 22.0 0.00 0.00 0.00 31 1009.4
20260903033033 82 252 6.0 16.0 0.00 0.00 0.00 32 1009.4
20260903032535 82 256 8.0 15.0 0.00 0.00 0.00 31 1009.5
20260903032032 83 237 9.0 16.0 0.00 0.00 0.00 32 1009.6
20260903031536 83 220 7.0 15.0 0.00 0.00 0.00 31 1009.6
20260903031031 83 238 6.0 12.0 0.00 0.00 0.00 31 1009.6
20260903030530 83 169 5.0 11.0 0.00 0.00 0.00 32 1009.4
20260903030030 83 265 4.0 17.0 0.00 0.00 0.00 33 1009.3
20260903025532 83 235 8.0 17.0 0.00 0.00 0.00 31 1009.2
20260903025028 83 236 6.0 16.0 0.00 0.00 0.00 35 1009.2
20260903024527 83 244 6.0 15.0 0.00 0.00 0.00 35 1009.2
20260903024028 82 154 5.0 16.0 0.00 0.00 0.00 34 1009.2
20260903023530 82 132 5.0 16.0 0.00 0.00 0.00 35 1009.3
20260903023031 83 232 6.0 16.0 0.00 0.00 0.00 35 1009.3
20260903022524 83 248 8.0 19.0 0.00 0.00 0.00 35 1009.4
20260903022023 83 229 8.0 19.0 0.00 0.00 0.00 35 1009.4
20260903021524 82 246 9.0 20.0 0.00 0.00 0.00 36 1009.3
20260903021022 82 247 9.0 20.0 0.00 0.00 0.00 36 1009.2
20260903020523 82 249 7.0 22.0 0.00 0.00 0.00 37 1009.2
20260903020051 82 265 12.0 22.0 0.00 0.00 0.00 37 1009.3
20260903015518 82 246 9.0 20.0 0.00 0.00 0.00 37 1009.3
20260903015017 82 217 8.0 20.0 0.00 0.00 0.00 37 1009.2
20260903014516 82 255 4.0 15.0 0.00 0.00 0.00 39 1009.2
20260903014016 82 209 6.0 15.0 0.00 0.00 0.00 39 1009.2
20260903013514 82 207 6.0 21.0 0.00 0.00 0.00 39 1009.2
20260903013014 81 219 10.0 21.0 0.00 0.00 0.00 39 1009.2
20260903012512 81 250 9.0 19.0 0.00 0.00 0.00 39 1009.2
20260903012012 81 255 5.0 18.0 0.00 0.00 0.00 39 1009.1
20260903011511 81 284 7.0 20.0 0.00 0.00 0.00 40 1009.1
20260903011010 81 234 9.0 20.0 0.00 0.00 0.00 39 1008.9
20260903010511 81 246 10.0 17.0 0.00 0.00 0.00 40 1009.1
20260903010009 80 240 8.0 23.0 0.00 0.00 0.00 40 1009.1
20260903005507 80 293 8.0 23.0 0.00 0.00 0.00 40 1009.1
20260903005011 80 244 10.0 21.0 0.00 0.00 0.00 40 1009.2
20260903004504 80 237 10.0 19.0 0.00 0.00 0.00 40 1009.2
20260903004003 80 224 7.0 26.0 0.00 0.00 0.00 41 1009.2
20260903003501 79 347 15.0 27.0 0.00 0.00 0.00 40 1009.2
20260903003101 79 256 5.0 25.0 0.00 0.00 0.00 42 1009.3
20260903002559 79 269 15.0 29.0 0.00 0.00 0.00 41 1009.3
20260903002058 79 266 15.0 29.0 0.00 0.00 0.00 41 1009.1
20260903001608 78 303 10.0 25.0 0.00 0.00 0.00 42 1009.3
20260903001055 78 275 13.0 30.0 0.00 0.00 0.00 42 1009.2
20260903000554 78 282 16.0 30.0 0.00 0.00 0.00 41 1009.2
20260903000058 78 213 17.0 26.0 0.00 0.00 0.00 42 1009.2
20260902235553 78 225 12.0 23.0 0.00 0.00 0.00 42 1009.3
20260902235051 78 242 12.0 23.0 0.00 0.00 0.00 43 1009.3
20260902234549 78 254 10.0 23.0 0.00 0.00 0.00 43 1009.3
20260902234048 77 245 10.0 25.0 0.00 0.00 0.00 43 1009.3
20260902233548 77 299 16.0 25.0 0.00 0.00 0.00 43 1009.4
20260902233053 77 257 11.0 25.0 0.00 0.00 0.00 44 1009.6
20260902232544 76 301 11.0 27.0 0.00 0.00 0.00 45 1009.7
20260902232043 76 263 14.0 27.0 0.00 0.00 0.00 45 1009.7
20260902231542 75 282 9.0 24.0 0.00 0.00 0.00 48 1009.7